#timestamp,LO_Frequency,Hit,StdDev 
1580914815.2,286046989.6,P
1580914835.0,286046988.9,P
1580914835.9,286046988.9,P
1580914855.7,286046990.9,Y
1580914875.6,286047010.1,P
1580914895.4,286047021.5,N
1580914915.3,286047022.5,N
1580914935.1,286047018.9,N
1580914936.0,286047018.9,N
1580914955.8,286047015.9,N
1580914975.7,286047016.8,N
1580914995.5,286047019.3,N
1580915015.3,286047012.6,N
1580915035.2,286047011.9,N
1580915055.0,286047017.0,N
1580915055.9,286047017.0,N
1580915075.8,286047017.1,N
1580915095.6,286047013.6,N
1580915115.4,286047015.5,N
1580915135.3,286047018.4,N
1580915155.1,286047015.3,N
1580915175.9,286047012.6,N
1580915195.7,286047008.1,N
1580915215.5,286047004.4,N
1580915235.4,286047001.7,N
1580915255.2,286047005.0,N
1580915275.0,286047005.7,N
1580915275.9,286047005.7,N
1580915295.8,286047002.4,N
1580915315.6,286046996.8,N
1580915335.5,286046995.5,N
1580915355.3,286046991.7,N
1580915375.1,286046994.8,N
1580915395.9,286046986.3,N
1580915415.7,286046980.5,N
1580915435.5,286046977.3,N
1580915455.4,286046974.4,N
1580915475.2,286046975.2,N
1580915495.0,286046972.4,N
1580915496.0,286046972.4,N
1580915515.8,286046970.3,N
1580915535.6,286046965.4,N
1580915555.5,286046960.1,N
1580915575.3,286046960.4,N
1580915595.1,286046965.2,N
1580915615.9,286046958.2,N
1580915635.7,286046960.9,N
1580915655.6,286046962.6,N
1580915675.4,286046966.0,N
1580915695.2,286046970.2,N
1580915715.1,286046975.3,N
1580915716.0,286046975.3,N
1580915735.8,286046973.2,N
1580915755.6,286046974.6,N
1580915775.5,286046968.2,N
1580915795.3,286046960.7,N
1580915815.2,286046976.3,N
1580915835.9,286046979.4,N
1580915855.7,286046980.3,N
1580915875.6,286046969.3,N
1580915895.4,286046969.1,Y
1580915915.2,286046990.8,P
1580915935.1,286046988.2,N
1580915936.0,286046988.2,N
1580915955.8,286046983.0,N
1580915975.7,286046983.4,N
1580915995.5,286046981.9,Y
1580916015.3,286046994.1,P
1580916035.2,286047000.7,N
1580916055.0,286047005.4,N
1580916055.9,286047005.4,N
1580916075.7,286047006.3,N
1580916095.6,286047009.1,N
1580916115.4,286047008.7,N
1580916135.3,286047004.1,N
1580916155.1,286046997.8,N
1580916156.0,286046997.8,N
1580916175.8,286046992.9,N
1580916195.7,286046991.8,N
1580916215.5,286046990.6,N
1580916235.3,286046985.8,N
1580916255.2,286046982.5,N
1580916275.0,286046986.8,N
1580916275.9,286046986.8,N
1580916295.8,286046987.0,N
1580916315.6,286046982.6,N
1580916335.4,286046977.4,N
1580916355.3,286046977.6,N
1580916375.1,286046983.5,N
1580916395.8,286046982.7,N
1580916415.7,286046978.3,N
1580916435.5,286046971.2,N
1580916455.3,286046972.3,N
1580916475.2,286046969.1,N
1580916495.0,286046965.2,Y
1580916495.9,286046965.2,P
1580916515.8,286046973.7,N
1580916535.6,286046970.4,N
1580916555.4,286046967.4,Y
1580916575.3,286046991.3,P
1580916595.1,286046989.6,N
1580916615.9,286046984.6,N
1580916635.7,286046988.3,N
1580916655.5,286046990.6,N
1580916675.4,286046989.3,N
1580916695.2,286046993.1,N
1580916715.0,286046998.2,N
1580916715.9,286046998.2,N
1580916735.8,286046997.5,N
1580916755.6,286046993.3,N
1580916775.5,286046994.7,N
1580916795.3,286046993.3,N
1580916815.1,286047003.6,N
1580916835.9,286047013.9,N
1580916855.7,286047016.4,N
1580916875.5,286047012.0,N
1580916895.4,286047009.4,N
1580916915.2,286047018.8,N
1580916935.0,286047027.3,N
1580916936.0,286047027.3,N
1580916955.8,286047026.0,N
1580916975.6,286047019.4,N
1580916995.5,286047019.8,N
1580917015.3,286047016.2,N
1580917035.1,286047013.3,N
1580917055.9,286047013.6,N
1580917075.7,286047007.0,N
1580917095.5,286047005.6,N
1580917115.4,286047000.7,N
1580917135.2,286046997.6,N
1580917155.1,286046990.2,N
1580917156.0,286046990.2,N
1580917175.8,286046984.5,N
1580917195.6,286046981.7,N
1580917215.5,286046980.2,N
1580917235.3,286046978.5,N
1580917255.1,286046984.9,N
1580917275.9,286046984.6,N
1580917295.7,286046984.8,N
1580917315.6,286046985.5,N
1580917335.4,286046988.4,N
1580917355.2,286046982.4,N
1580917375.1,286046985.0,N
1580917376.0,286046985.0,N
1580917395.8,286046981.0,N
1580917415.6,286046979.3,N
1580917435.5,286046976.4,N
1580917455.3,286046978.3,N
1580917475.2,286046981.8,N
1580917495.9,286046982.8,N
1580917515.7,286046982.7,N
1580917535.6,286046983.6,N
1580917555.4,286046977.6,N
1580917575.3,286046976.9,N
1580917595.1,286046979.7,N
1580917596.0,286046979.7,N
1580917615.8,286046980.9,N
1580917635.7,286046984.7,N
1580917655.5,286046986.3,N
1580917675.3,286046986.9,N
1580917695.2,286046987.8,Y
1580917715.0,286047003.2,P
1580917715.9,286047003.2,N
1580917735.8,286047010.6,N
1580917755.6,286047006.5,N
1580917775.4,286047004.5,N
1580917795.3,286047001.7,N
1580917815.1,286047005.0,N
1580917835.9,286047002.8,N
1580917855.7,286047001.0,N
1580917875.5,286047005.2,N
1580917895.4,286047006.9,N
1580917915.2,286047010.8,N
1580917935.0,286047012.1,N
1580917935.9,286047012.1,N
1580917955.8,286047015.1,N
1580917975.6,286047010.1,N
1580917995.5,286047008.0,N
1580918015.3,286047007.9,N
1580918035.1,286047006.3,N
1580918055.9,286047003.5,N
1580918075.7,286047007.5,N
1580918095.6,286047005.6,N
1580918115.4,286047003.1,N
1580918135.2,286047001.3,N
1580918155.1,286047002.7,N
1580918156.0,286047002.7,N
1580918175.8,286047000.0,N
1580918195.6,286047007.2,N
1580918215.5,286047006.0,N
1580918235.3,286047003.6,N
1580918255.2,286047002.1,N
1580918275.9,286047005.9,N
1580918295.7,286047005.7,N
1580918315.6,286047003.7,N
1580918335.4,286047002.7,N
1580918355.3,286047002.4,N
1580918375.1,286047002.1,N
1580918376.0,286047002.1,N
1580918395.8,286047002.0,N
